| time (UTC) | temp C | wind direction | speed KPH | gust KPH | rain 1hr cm | rain 24hr cm | rain mn cm | humidity % | barometer mb |
| 20260903232006 | 27 | 155 | 3.2 | 4.8 | 0.00 | 0.28 | 0.28 | 77 | 1006.2 |
| 20260903231506 | 27 | 155 | 1.6 | 9.7 | 0.00 | 0.28 | 0.28 | 77 | 1006.1 |
| 20260903231006 | 27 | 162 | 1.6 | 8.0 | 0.00 | 0.28 | 0.28 | 77 | 1006.2 |
| 20260903230506 | 27 | 160 | 1.6 | 8.0 | 0.00 | 0.28 | 0.28 | 77 | 1006.2 |
| 20260903230006 | 27 | 161 | 3.2 | 8.0 | 0.00 | 0.28 | 0.28 | 76 | 1006.2 |
| 20260903225506 | 27 | 166 | 4.8 | 8.0 | 0.00 | 0.28 | 0.28 | 76 | 1006.2 |
| 20260903225006 | 27 | 168 | 3.2 | 12.9 | 0.00 | 0.28 | 0.28 | 75 | 1006.0 |
| 20260903224506 | 27 | 174 | 4.8 | 14.5 | 0.00 | 0.28 | 0.28 | 75 | 1006.1 |
| 20260903224006 | 27 | 170 | 3.2 | 12.9 | 0.00 | 0.28 | 0.28 | 75 | 1006.1 |
| 20260903223506 | 27 | 180 | 3.2 | 12.9 | 0.00 | 0.28 | 0.28 | 74 | 1006.2 |
| 20260903223007 | 27 | 162 | 4.8 | 9.7 | 0.00 | 0.28 | 0.28 | 74 | 1006.1 |
| 20260903222506 | 27 | 173 | 3.2 | 8.0 | 0.00 | 0.28 | 0.28 | 75 | 1006.1 |
| 20260903222006 | 27 | 174 | 3.2 | 11.3 | 0.00 | 0.28 | 0.28 | 75 | 1006.1 |
| 20260903221506 | 27 | 163 | 4.8 | 11.3 | 0.00 | 0.28 | 0.28 | 74 | 1006.1 |
| 20260903220506 | 27 | 163 | 4.8 | 11.3 | 0.00 | 0.28 | 0.28 | 73 | 1005.9 |
| 20260903220006 | 27 | 175 | 3.2 | 11.3 | 0.00 | 0.28 | 0.28 | 73 | 1006.0 |
| 20260903215506 | 27 | 175 | 4.8 | 9.7 | 0.00 | 0.28 | 0.28 | 72 | 1006.0 |
| 20260903215006 | 28 | 150 | 3.2 | 20.9 | 0.00 | 0.28 | 0.28 | 73 | 1006.1 |
| 20260903214007 | 27 | 182 | 3.2 | 8.0 | 0.00 | 0.28 | 0.28 | 72 | 1006.2 |
| 20260903213507 | 28 | 202 | 4.8 | 8.0 | 0.00 | 0.28 | 0.28 | 72 | 1006.3 |
| 20260903213007 | 28 | 168 | 3.2 | 9.7 | 0.00 | 0.28 | 0.28 | 71 | 1006.4 |
| 20260903212506 | 28 | 150 | 4.8 | 12.9 | 0.00 | 0.28 | 0.28 | 71 | 1006.4 |
| 20260903212007 | 28 | 169 | 3.2 | 9.7 | 0.00 | 0.28 | 0.28 | 71 | 1006.5 |
| 20260903211506 | 28 | 146 | 3.2 | 16.1 | 0.00 | 0.28 | 0.28 | 72 | 1006.5 |
| 20260903210506 | 27 | 172 | 4.8 | 19.3 | 0.00 | 0.28 | 0.28 | 70 | 1006.2 |
| 20260903210006 | 28 | 166 | 6.4 | 14.5 | 0.00 | 0.28 | 0.28 | 69 | 1006.2 |
| 20260903205506 | 28 | 196 | 6.4 | 16.1 | 0.00 | 0.28 | 0.28 | 68 | 1006.1 |
| 20260903205006 | 28 | 187 | 6.4 | 16.1 | 0.00 | 0.28 | 0.28 | 68 | 1006.1 |
| 20260903204506 | 28 | 175 | 6.4 | 19.3 | 0.00 | 0.28 | 0.28 | 68 | 1006.4 |
| 20260903204006 | 28 | 166 | 6.4 | 14.5 | 0.00 | 0.28 | 0.28 | 68 | 1006.1 |
| 20260903203506 | 28 | 180 | 6.4 | 19.3 | 0.00 | 0.28 | 0.28 | 68 | 1006.1 |
| 20260903203006 | 28 | 186 | 6.4 | 16.1 | 0.00 | 0.28 | 0.28 | 68 | 1006.3 |
| 20260903202506 | 28 | 179 | 8.0 | 19.3 | 0.00 | 0.28 | 0.28 | 67 | 1006.5 |
| 20260903202006 | 28 | 185 | 4.8 | 14.5 | 0.00 | 0.28 | 0.28 | 69 | 1006.8 |
| 20260903201506 | 28 | 172 | 4.8 | 11.3 | 0.00 | 0.28 | 0.28 | 69 | 1006.8 |
| 20260903201006 | 28 | 171 | 3.2 | 9.7 | 0.00 | 0.28 | 0.28 | 70 | 1006.7 |
| 20260903200506 | 27 | 156 | 3.2 | 11.3 | 0.00 | 0.28 | 0.28 | 70 | 1006.7 |
| 20260903200006 | 27 | 157 | 6.4 | 11.3 | 0.00 | 0.28 | 0.28 | 69 | 1006.7 |
| 20260903195009 | 27 | 156 | 4.8 | 12.9 | 0.00 | 0.28 | 0.28 | 67 | 1006.7 |
| 20260903194506 | 27 | 179 | 4.8 | 19.3 | 0.00 | 0.28 | 0.28 | 66 | 1006.8 |
| 20260903194006 | 27 | 180 | 4.8 | 19.3 | 0.00 | 0.28 | 0.28 | 66 | 1006.8 |
| 20260903193506 | 27 | 170 | 3.2 | 14.5 | 0.00 | 0.28 | 0.28 | 66 | 1006.8 |
| 20260903193007 | 27 | 172 | 3.2 | 12.9 | 0.00 | 0.28 | 0.28 | 67 | 1006.9 |
| 20260903192506 | 27 | 162 | 3.2 | 8.0 | 0.00 | 0.28 | 0.28 | 65 | 1007.0 |
| 20260903192006 | 28 | 170 | 6.4 | 14.5 | 0.00 | 0.28 | 0.28 | 65 | 1007.1 |
| 20260903191506 | 28 | 163 | 4.8 | 9.7 | 0.00 | 0.28 | 0.28 | 64 | 1007.2 |
| 20260903191006 | 28 | 180 | 6.4 | 14.5 | 0.00 | 0.28 | 0.28 | 63 | 1007.3 |
| 20260903190506 | 28 | 160 | 4.8 | 12.9 | 0.00 | 0.28 | 0.28 | 65 | 1007.4 |
| 20260903190006 | 28 | 196 | 3.2 | 9.7 | 0.00 | 0.28 | 0.28 | 67 | 1007.3 |
| 20260903185006 | 28 | 176 | 3.2 | 9.7 | 0.00 | 0.28 | 0.28 | 65 | 1007.5 |
| 20260903184006 | 27 | 155 | 1.6 | 8.0 | 0.00 | 0.28 | 0.28 | 67 | 1007.4 |
| 20260903183506 | 27 | 163 | 4.8 | 16.1 | 0.00 | 0.28 | 0.28 | 68 | 1007.3 |
| 20260903183006 | 27 | 165 | 4.8 | 16.1 | 0.00 | 0.28 | 0.28 | 66 | 1007.4 |
| 20260903182506 | 27 | 164 | 3.2 | 9.7 | 0.00 | 0.28 | 0.28 | 65 | 1007.5 |
| 20260903182006 | 27 | 171 | 8.0 | 12.9 | 0.00 | 0.28 | 0.28 | 67 | 1007.5 |
| 20260903181006 | 27 | 106 | 3.2 | 12.9 | 0.00 | 0.28 | 0.28 | 71 | 1007.6 |
| 20260903180506 | 26 | 169 | 3.2 | 9.7 | 0.00 | 0.28 | 0.28 | 71 | 1007.9 |
| 20260903180006 | 27 | 163 | 4.8 | 8.0 | 0.00 | 0.28 | 0.28 | 70 | 1007.8 |
| 20260903175506 | 27 | 166 | 4.8 | 11.3 | 0.00 | 0.28 | 0.28 | 71 | 1007.7 |
| 20260903175006 | 26 | 176 | 3.2 | 9.7 | 0.00 | 0.28 | 0.28 | 74 | 1007.7 |
| 20260903174506 | 26 | 172 | 3.2 | 8.0 | 0.00 | 0.28 | 0.28 | 76 | 1007.7 |
| 20260903173006 | 26 | 170 | 3.2 | 9.7 | 0.00 | 0.28 | 0.28 | 73 | 1007.7 |
| 20260903172506 | 26 | 122 | 1.6 | 9.7 | 0.00 | 0.28 | 0.28 | 73 | 1007.7 |
| 20260903172006 | 26 | 159 | 4.8 | 9.7 | 0.00 | 0.28 | 0.28 | 72 | 1007.7 |
| 20260903171006 | 26 | 114 | 3.2 | 9.7 | 0.00 | 0.28 | 0.28 | 74 | 1007.5 |
| 20260903170506 | 26 | 155 | 4.8 | 8.0 | 0.00 | 0.28 | 0.28 | 76 | 1007.5 |
| 20260903170006 | 26 | 159 | 1.6 | 8.0 | 0.00 | 0.28 | 0.28 | 77 | 1007.5 |
| 20260903165506 | 26 | 159 | 3.2 | 16.1 | 0.00 | 0.28 | 0.28 | 76 | 1007.6 |
| 20260903165006 | 26 | 160 | 4.8 | 9.7 | 0.00 | 0.28 | 0.28 | 75 | 1007.7 |
| 20260903164506 | 26 | 157 | 4.8 | 14.5 | 0.00 | 0.28 | 0.28 | 77 | 1007.7 |
| 20260903163506 | 25 | 155 | 1.6 | 4.8 | 0.00 | 0.28 | 0.28 | 81 | 1007.4 |
| 20260903163006 | 25 | 155 | 1.6 | 4.8 | 0.00 | 0.28 | 0.28 | 83 | 1007.3 |
| 20260903162506 | 25 | 155 | 3.2 | 4.8 | 0.00 | 0.28 | 0.28 | 84 | 1007.2 |
| 20260903162007 | 24 | 155 | 1.6 | 9.7 | 0.00 | 0.28 | 0.28 | 85 | 1007.3 |
| 20260903161007 | 24 | 152 | 4.8 | 9.7 | 0.00 | 0.28 | 0.28 | 85 | 1007.3 |
| 20260903160506 | 23 | 146 | 3.2 | 9.7 | 0.00 | 0.28 | 0.28 | 87 | 1007.2 |
| 20260903155506 | 23 | 161 | 3.2 | 4.8 | 0.00 | 0.28 | 0.28 | 91 | 1007.3 |
| 20260903155006 | 23 | 161 | 1.6 | 8.0 | 0.00 | 0.28 | 0.28 | 92 | 1007.5 |
| 20260903154506 | 22 | 161 | 1.6 | 4.8 | 0.00 | 0.28 | 0.28 | 92 | 1007.4 |
| 20260903153506 | 22 | 161 | 1.6 | 8.0 | 0.00 | 0.28 | 0.28 | 92 | 1007.7 |
| 20260903152006 | 21 | 160 | 3.2 | 9.7 | 0.00 | 0.28 | 0.28 | 92 | 1007.8 |
| 20260903150506 | 21 | 160 | 3.2 | 9.7 | 0.00 | 0.28 | 0.28 | 92 | 1007.7 |
| 20260903150006 | 21 | 161 | 1.6 | 8.0 | 0.00 | 0.28 | 0.28 | 92 | 1007.7 |
| 20260903145506 | 21 | 170 | 3.2 | 9.7 | 0.00 | 0.28 | 0.28 | 92 | 1007.4 |
| 20260903145006 | 21 | 155 | 3.2 | 4.8 | 0.00 | 0.28 | 0.28 | 92 | 1007.4 |
| 20260903144506 | 21 | 155 | 1.6 | 4.8 | 0.00 | 0.28 | 0.28 | 92 | 1007.8 |
| 20260903144006 | 21 | 155 | 0.0 | 4.8 | 0.00 | 0.28 | 0.28 | 92 | 1007.8 |
| 20260903143506 | 21 | 155 | 1.6 | 4.8 | 0.00 | 0.28 | 0.28 | 92 | 1007.8 |
| 20260903143006 | 21 | 153 | 3.2 | 4.8 | 0.00 | 0.28 | 0.28 | 92 | 1008.1 |
| 20260903142505 | 21 | 153 | 3.2 | 9.7 | 0.00 | 0.28 | 0.28 | 92 | 1008.1 |
| 20260903142006 | 21 | 171 | 3.2 | 4.8 | 0.00 | 0.28 | 0.28 | 92 | 1008.0 |
| 20260903141506 | 21 | 175 | 3.2 | 9.7 | 0.00 | 0.28 | 0.28 | 92 | 1008.0 |
| 20260903141006 | 21 | 175 | 3.2 | 4.8 | 0.00 | 0.28 | 0.28 | 92 | 1007.7 |
| 20260903140506 | 21 | 163 | 0.0 | 3.2 | 0.00 | 0.28 | 0.28 | 92 | 1007.6 |
| 20260903140006 | 21 | 163 | 0.0 | 4.8 | 0.00 | 0.28 | 0.28 | 92 | 1007.7 |
| 20260903135506 | 21 | 165 | 4.8 | 8.0 | 0.00 | 0.28 | 0.28 | 92 | 1008.0 |
| 20260903135006 | 21 | 66 | 0.0 | 3.2 | 0.00 | 0.28 | 0.28 | 92 | 1007.6 |
| 20260903134006 | 20 | 315 | 1.6 | 4.8 | 0.00 | 0.28 | 0.28 | 92 | 1007.7 |
| 20260903133506 | 20 | 169 | 3.2 | 8.0 | 0.00 | 0.28 | 0.28 | 92 | 1007.9 |
| 20260903132506 | 20 | 165 | 3.2 | 8.0 | 0.00 | 0.28 | 0.28 | 92 | 1008.5 |
| 20260903132006 | 20 | 165 | 1.6 | 3.2 | 0.00 | 0.28 | 0.28 | 92 | 1008.8 |
| 20260903131506 | 20 | 165 | 0.0 | 3.2 | 0.00 | 0.28 | 0.28 | 92 | 1008.8 |
| 20260903131007 | 20 | 165 | 0.0 | 1.6 | 0.00 | 0.28 | 0.28 | 92 | 1008.9 |
| 20260903130506 | 20 | 165 | 0.0 | 3.2 | 0.00 | 0.28 | 0.28 | 92 | 1008.8 |
| 20260903130006 | 20 | 165 | 3.2 | 8.0 | 0.00 | 0.28 | 0.28 | 92 | 1008.7 |
| 20260903125511 | 20 | 165 | 1.6 | 8.0 | 0.03 | 0.28 | 0.28 | 92 | 1008.4 |
| 20260903125006 | 20 | 165 | 3.2 | 4.8 | 0.03 | 0.28 | 0.28 | 92 | 1008.5 |
| 20260903124506 | 20 | 163 | 0.0 | 4.8 | 0.05 | 0.28 | 0.28 | 92 | 1009.0 |
| 20260903123006 | 20 | 163 | 1.6 | 4.8 | 0.08 | 0.28 | 0.28 | 92 | 1009.2 |
| 20260903122506 | 20 | 155 | 3.2 | 4.8 | 0.08 | 0.28 | 0.28 | 92 | 1009.2 |
| 20260903122006 | 20 | 155 | 3.2 | 4.8 | 0.10 | 0.28 | 0.28 | 92 | 1009.3 |
| 20260903121506 | 20 | 132 | 3.2 | 8.0 | 0.13 | 0.28 | 0.28 | 92 | 1009.6 |
| 20260903121006 | 20 | 175 | 0.0 | 0.0 | 0.13 | 0.28 | 0.28 | 92 | 1009.5 |
| 20260903120506 | 20 | 175 | 0.0 | 0.0 | 0.13 | 0.28 | 0.28 | 92 | 1009.6 |
| 20260903120005 | 20 | 175 | 0.0 | 1.6 | 0.15 | 0.28 | 0.28 | 92 | 1009.4 |
| 20260903115505 | 20 | 175 | 0.0 | 3.2 | 0.13 | 0.25 | 0.25 | 92 | 1009.2 |
| 20260903114505 | 20 | 175 | 0.0 | 4.8 | 0.13 | 0.23 | 0.23 | 92 | 1008.7 |
| 20260903114006 | 20 | 175 | 1.6 | 4.8 | 0.15 | 0.23 | 0.23 | 92 | 1008.4 |
| 20260903113006 | 21 | 151 | 3.2 | 4.8 | 0.15 | 0.20 | 0.20 | 91 | 1008.6 |
| 20260903112505 | 21 | 150 | 1.6 | 8.0 | 0.18 | 0.20 | 0.20 | 92 | 1008.7 |
| 20260903112006 | 21 | 150 | 1.6 | 4.8 | 0.15 | 0.18 | 0.18 | 92 | 1009.2 |
| 20260903111505 | 21 | 150 | 0.0 | 4.8 | 0.13 | 0.15 | 0.15 | 91 | 1009.1 |
| 20260903110506 | 21 | 150 | 1.6 | 4.8 | 0.15 | 0.15 | 0.15 | 91 | 1009.0 |
| 20260903105505 | 21 | 150 | 3.2 | 8.0 | 0.13 | 0.13 | 0.13 | 91 | 1008.7 |
| 20260903105006 | 21 | 143 | 1.6 | 4.8 | 0.10 | 0.10 | 0.10 | 91 | 1008.8 |
| 20260903104506 | 21 | 174 | 3.2 | 9.7 | 0.10 | 0.10 | 0.10 | 91 | 1008.9 |
| 20260903103005 | 21 | 155 | 3.2 | 9.7 | 0.05 | 0.05 | 0.05 | 90 | 1008.5 |
| 20260903102006 | 22 | 174 | 8.0 | 12.9 | 0.03 | 0.03 | 0.03 | 90 | 1008.8 |
| 20260903101506 | 22 | 165 | 4.8 | 8.0 | 0.03 | 0.03 | 0.03 | 90 | 1009.0 |
| 20260903101006 | 22 | 177 | 1.6 | 4.8 | 0.03 | 0.05 | 0.03 | 91 | 1009.4 |
| 20260903100506 | 22 | 171 | 3.2 | 12.9 | 0.00 | 0.08 | 0.00 | 91 | 1009.5 |
| 20260903100006 | 22 | 175 | 3.2 | 8.0 | 0.00 | 0.08 | 0.00 | 91 | 1009.2 |
| 20260903095006 | 22 | 157 | 3.2 | 8.0 | 0.00 | 0.08 | 0.00 | 91 | 1008.4 |
| 20260903094505 | 22 | 157 | 3.2 | 4.8 | 0.00 | 0.08 | 0.00 | 91 | 1008.2 |
| 20260903093506 | 21 | 157 | 1.6 | 4.8 | 0.00 | 0.08 | 0.00 | 91 | 1007.8 |
| 20260903093006 | 21 | 157 | 3.2 | 4.8 | 0.00 | 0.08 | 0.00 | 91 | 1007.8 |
| 20260903092505 | 21 | 157 | 1.6 | 3.2 | 0.00 | 0.08 | 0.00 | 91 | 1007.6 |
| 20260903091506 | 21 | 157 | 3.2 | 4.8 | 0.00 | 0.08 | 0.00 | 91 | 1007.7 |
| 20260903091005 | 21 | 157 | 0.0 | 3.2 | 0.00 | 0.08 | 0.00 | 91 | 1007.5 |
| 20260903090506 | 21 | 157 | 0.0 | 0.0 | 0.00 | 0.08 | 0.00 | 91 | 1007.4 |
| 20260903090005 | 21 | 157 | 0.0 | 0.0 | 0.00 | 0.08 | 0.00 | 91 | 1007.3 |
| 20260903085006 | 21 | 157 | 0.0 | 0.0 | 0.00 | 0.08 | 0.00 | 90 | 1007.4 |
| 20260903084506 | 21 | 157 | 0.0 | 3.2 | 0.00 | 0.08 | 0.00 | 90 | 1007.6 |
| 20260903084006 | 21 | 157 | 1.6 | 3.2 | 0.00 | 0.08 | 0.00 | 90 | 1007.8 |
| 20260903083506 | 21 | 157 | 0.0 | 0.0 | 0.00 | 0.08 | 0.00 | 90 | 1007.5 |
| 20260903083006 | 21 | 157 | 0.0 | 0.0 | 0.00 | 0.08 | 0.00 | 90 | 1007.4 |
| 20260903082505 | 21 | 157 | 0.0 | 0.0 | 0.00 | 0.08 | 0.00 | 90 | 1007.4 |
| 20260903082006 | 21 | 157 | 0.0 | 0.0 | 0.00 | 0.08 | 0.00 | 90 | 1007.5 |
| 20260903081506 | 22 | 157 | 0.0 | 0.0 | 0.00 | 0.08 | 0.00 | 90 | 1007.6 |
| 20260903081006 | 22 | 157 | 0.0 | 0.0 | 0.00 | 0.08 | 0.00 | 90 | 1007.5 |
| 20260903080006 | 22 | 157 | 0.0 | 3.2 | 0.00 | 0.08 | 0.00 | 90 | 1007.3 |
| 20260903075506 | 22 | 157 | 0.0 | 0.0 | 0.00 | 0.08 | 0.00 | 90 | 1007.3 |
| 20260903075006 | 22 | 157 | 0.0 | 0.0 | 0.00 | 0.08 | 0.00 | 90 | 1007.2 |
| 20260903074506 | 22 | 157 | 0.0 | 0.0 | 0.00 | 0.08 | 0.00 | 90 | 1007.2 |
| 20260903074006 | 22 | 157 | 0.0 | 0.0 | 0.00 | 0.08 | 0.00 | 89 | 1007.2 |
| 20260903073506 | 22 | 157 | 0.0 | 0.0 | 0.00 | 0.08 | 0.00 | 89 | 1007.2 |
| 20260903073006 | 22 | 157 | 0.0 | 0.0 | 0.00 | 0.08 | 0.00 | 89 | 1007.3 |
| 20260903072006 | 22 | 157 | 0.0 | 0.0 | 0.00 | 0.08 | 0.00 | 89 | 1007.4 |
| 20260903071505 | 22 | 157 | 0.0 | 1.6 | 0.00 | 0.08 | 0.00 | 89 | 1007.4 |
| 20260903071006 | 22 | 157 | 0.0 | 3.2 | 0.00 | 0.08 | 0.00 | 89 | 1007.4 |
| 20260903070506 | 22 | 157 | 0.0 | 3.2 | 0.00 | 0.08 | 0.00 | 89 | 1007.4 |
| 20260903070005 | 22 | 157 | 0.0 | 3.2 | 0.00 | 0.10 | 0.00 | 89 | 1007.5 |
| 20260903065006 | 22 | 157 | 0.0 | 3.2 | 0.00 | 0.13 | 0.00 | 89 | 1007.6 |
| 20260903064505 | 22 | 157 | 0.0 | 1.6 | 0.00 | 0.15 | 0.00 | 89 | 1007.6 |
| 20260903064006 | 22 | 157 | 0.0 | 1.6 | 0.00 | 0.23 | 0.00 | 88 | 1007.6 |
| 20260903063506 | 22 | 157 | 0.0 | 0.0 | 0.00 | 0.61 | 0.00 | 88 | 1007.6 |
| 20260903063006 | 22 | 157 | 0.0 | 0.0 | 0.00 | 0.86 | 0.00 | 88 | 1007.6 |
| 20260903062505 | 22 | 157 | 0.0 | 1.6 | 0.00 | 0.86 | 0.00 | 88 | 1007.7 |
| 20260903062005 | 22 | 157 | 0.0 | 3.2 | 0.00 | 0.86 | 0.00 | 88 | 1007.8 |
| 20260903061506 | 22 | 157 | 0.0 | 3.2 | 0.00 | 0.86 | 0.00 | 88 | 1007.8 |
| 20260903060006 | 22 | 157 | 0.0 | 1.6 | 0.00 | 0.86 | 0.00 | 89 | 1007.8 |
| 20260903055505 | 22 | 157 | 0.0 | 1.6 | 0.00 | 0.86 | 0.00 | 89 | 1007.9 |
| 20260903055006 | 22 | 157 | 0.0 | 1.6 | 0.00 | 0.86 | 0.00 | 89 | 1007.9 |
| 20260903054505 | 22 | 157 | 0.0 | 1.6 | 0.00 | 0.86 | 0.00 | 89 | 1007.8 |
| 20260903054006 | 22 | 157 | 0.0 | 0.0 | 0.00 | 0.86 | 0.00 | 89 | 1007.9 |
| 20260903053006 | 23 | 157 | 0.0 | 3.2 | 0.00 | 0.86 | 0.00 | 89 | 1007.9 |
| 20260903052506 | 23 | 157 | 0.0 | 3.2 | 0.00 | 0.86 | 0.00 | 89 | 1007.9 |
| 20260903052006 | 23 | 157 | 0.0 | 1.6 | 0.00 | 0.86 | 0.00 | 88 | 1008.0 |
| 20260903050006 | 23 | 157 | 0.0 | 3.2 | 0.00 | 0.86 | 0.00 | 88 | 1008.0 |
| 20260903044505 | 23 | 157 | 0.0 | 1.6 | 0.00 | 0.86 | 0.86 | 87 | 1008.0 |
| 20260903044006 | 23 | 157 | 1.6 | 3.2 | 0.00 | 0.89 | 0.86 | 87 | 1008.0 |
| 20260903043506 | 23 | 157 | 0.0 | 0.0 | 0.00 | 0.89 | 0.86 | 87 | 1008.0 |
| 20260903043006 | 23 | 157 | 0.0 | 3.2 | 0.00 | 0.89 | 0.86 | 87 | 1008.0 |
| 20260903042505 | 23 | 157 | 1.6 | 3.2 | 0.00 | 0.89 | 0.86 | 87 | 1008.0 |
| 20260903042005 | 23 | 157 | 1.6 | 3.2 | 0.00 | 0.89 | 0.86 | 87 | 1008.0 |
| 20260903041006 | 23 | 157 | 1.6 | 3.2 | 0.00 | 0.89 | 0.86 | 86 | 1008.1 |
| 20260903040506 | 23 | 157 | 0.0 | 1.6 | 0.00 | 0.89 | 0.86 | 86 | 1008.1 |
| 20260903040008 | 23 | 157 | 0.0 | 3.2 | 0.00 | 0.89 | 0.86 | 86 | 1008.1 |
| 20260903035505 | 23 | 157 | 0.0 | 1.6 | 0.00 | 0.89 | 0.86 | 86 | 1008.1 |
| 20260903035006 | 23 | 157 | 0.0 | 1.6 | 0.00 | 0.89 | 0.86 | 86 | 1008.2 |
| 20260903034505 | 23 | 157 | 0.0 | 1.6 | 0.00 | 0.89 | 0.86 | 86 | 1008.2 |
| 20260903034006 | 23 | 157 | 0.0 | 0.0 | 0.00 | 0.89 | 0.86 | 86 | 1008.2 |
| 20260903033506 | 23 | 157 | 0.0 | 0.0 | 0.00 | 0.89 | 0.86 | 85 | 1008.3 |
| 20260903033005 | 23 | 157 | 0.0 | 0.0 | 0.00 | 0.89 | 0.86 | 85 | 1008.3 |
| 20260903032006 | 23 | 157 | 0.0 | 0.0 | 0.00 | 0.89 | 0.86 | 85 | 1008.3 |
| 20260903031506 | 23 | 157 | 0.0 | 0.0 | 0.00 | 0.89 | 0.86 | 86 | 1008.4 |
| 20260903031005 | 23 | 157 | 0.0 | 0.0 | 0.00 | 0.89 | 0.86 | 85 | 1008.4 |
| 20260903030506 | 23 | 157 | 0.0 | 0.0 | 0.00 | 0.89 | 0.86 | 85 | 1008.4 |
| 20260903030005 | 23 | 157 | 0.0 | 0.0 | 0.00 | 0.89 | 0.86 | 85 | 1008.4 |
| 20260903025506 | 23 | 157 | 0.0 | 0.0 | 0.00 | 0.89 | 0.86 | 85 | 1008.4 |
| 20260903025006 | 23 | 157 | 0.0 | 0.0 | 0.00 | 0.89 | 0.86 | 85 | 1008.4 |
| 20260903024506 | 23 | 157 | 0.0 | 0.0 | 0.00 | 0.89 | 0.86 | 85 | 1008.4 |
| 20260903024006 | 23 | 157 | 0.0 | 0.0 | 0.00 | 0.89 | 0.86 | 84 | 1008.4 |
| 20260903023506 | 23 | 157 | 0.0 | 0.0 | 0.00 | 0.89 | 0.86 | 84 | 1008.4 |
| 20260903023006 | 23 | 157 | 0.0 | 0.0 | 0.00 | 0.89 | 0.86 | 84 | 1008.4 |
| 20260903022006 | 24 | 157 | 0.0 | 0.0 | 0.00 | 0.89 | 0.86 | 84 | 1008.2 |
| 20260903021505 | 24 | 157 | 0.0 | 0.0 | 0.00 | 0.89 | 0.86 | 84 | 1008.2 |
| 20260903021006 | 24 | 157 | 0.0 | 0.0 | 0.00 | 0.89 | 0.86 | 83 | 1008.2 |
| 20260903020506 | 24 | 157 | 0.0 | 0.0 | 0.00 | 0.89 | 0.86 | 83 | 1008.1 |
| 20260903020007 | 24 | 157 | 0.0 | 0.0 | 0.00 | 0.89 | 0.86 | 82 | 1008.1 |
| 20260903015507 | 24 | 157 | 0.0 | 0.0 | 0.00 | 0.89 | 0.86 | 82 | 1008.0 |
| 20260903015007 | 24 | 157 | 0.0 | 0.0 | 0.00 | 0.89 | 0.86 | 81 | 1008.0 |
| 20260903014506 | 25 | 157 | 0.0 | 0.0 | 0.00 | 0.89 | 0.86 | 81 | 1008.0 |
| 20260903014009 | 25 | 157 | 0.0 | 0.0 | 0.00 | 0.89 | 0.86 | 80 | 1007.9 |
| 20260903013006 | 25 | 157 | 0.0 | 0.0 | 0.00 | 0.89 | 0.86 | 79 | 1008.0 |
| 20260903012506 | 25 | 157 | 0.0 | 0.0 | 0.00 | 0.89 | 0.86 | 79 | 1007.9 |
| 20260903012007 | 25 | 157 | 0.0 | 0.0 | 0.00 | 0.89 | 0.86 | 78 | 1007.9 |
| 20260903011006 | 25 | 157 | 0.0 | 0.0 | 0.00 | 0.89 | 0.86 | 77 | 1007.8 |
| 20260903010506 | 26 | 157 | 0.0 | 0.0 | 0.00 | 0.89 | 0.86 | 76 | 1007.7 |
| 20260903010006 | 26 | 157 | 0.0 | 0.0 | 0.00 | 0.89 | 0.86 | 76 | 1007.7 |
| 20260903005505 | 26 | 157 | 0.0 | 0.0 | 0.00 | 0.89 | 0.86 | 76 | 1007.7 |
| 20260903005005 | 26 | 157 | 0.0 | 0.0 | 0.00 | 0.89 | 0.86 | 75 | 1007.7 |
| 20260903004505 | 26 | 157 | 0.0 | 0.0 | 0.00 | 0.89 | 0.86 | 74 | 1007.7 |
| 20260903004006 | 26 | 157 | 0.0 | 0.0 | 0.00 | 0.89 | 0.86 | 74 | 1007.6 |
| 20260903003006 | 27 | 157 | 0.0 | 1.6 | 0.00 | 0.89 | 0.86 | 74 | 1007.6 |
| 20260903002506 | 27 | 157 | 0.0 | 3.2 | 0.00 | 0.89 | 0.86 | 73 | 1007.6 |
| 20260903002006 | 27 | 157 | 0.0 | 3.2 | 0.00 | 0.89 | 0.86 | 73 | 1007.6 |
| 20260903001005 | 27 | 157 | 1.6 | 3.2 | 0.00 | 0.89 | 0.86 | 72 | 1007.5 |
| 20260903000006 | 28 | 157 | 1.6 | 3.2 | 0.00 | 0.89 | 0.86 | 72 | 1007.6 |
| 20260902235006 | 28 | 157 | 1.6 | 8.0 | 0.00 | 0.89 | 0.86 | 71 | 1007.6 |
| 20260902234006 | 28 | 157 | 1.6 | 9.7 | 0.00 | 0.89 | 0.86 | 71 | 1007.6 |
| 20260902233506 | 28 | 155 | 3.2 | 4.8 | 0.00 | 0.89 | 0.86 | 70 | 1007.6 |
| 20260902233006 | 28 | 155 | 1.6 | 4.8 | 0.00 | 0.89 | 0.86 | 71 | 1007.7 |
| 20260902232505 | 28 | 155 | 1.6 | 4.8 | 0.00 | 0.89 | 0.86 | 72 | 1007.6 |